Home   Weather   Livonia   Past weeks

Flag for USA Past Weather in Livonia, Michigan, USA — Yesterday and Last 2 Weeks

Now
39 °F

Fog.


Feels Like: 39 °F
Forecast: 35 / 47 °F
Wind: No wind

Location: Detroit Metropolitan Wayne County Airport

Current Time: Jan 17, 2017 at 12:36:06 pm

Latest Report: Jan 17, 2017 at 11:53 am


Visibility: 1 mi

Pressure: 29.80 "Hg

Humidity: 100%

Dew Point: 39 °F

Location of LivoniaLocation

Past Weather in Livonia — Graph

°F

Livonia Temperature Yesterday

Maximum temperature yesterday: 36 °F (at 2:53 pm)
Minimum temperature yesterday: 20 °F (at 1:53 am)
Average temperature yesterday: 30 °F

High & Low Weather Summary for the Past Weeks

 TemperatureHumidityPressure
High58 °F (Jan 12, 12:25 am)100% (Jan 2, 9:14 pm)30.79 "Hg (Jan 2, 9:14 pm)
Low5 °F (Jan 7, 5:53 am)52% (Jan 4, 1:53 pm)29.44 "Hg (Jan 10, 7:53 pm)
Average27 °F77%30.15 "Hg
* Reported Jan 2 10:53 am — Jan 17 10:53 am, Livonia, Weather by CustomWeather, © 2017

Note: Actual official high and low records may vary slightly from our data, if they occured in-between our weather recording intervals... More about our weather records

Advertising

Livonia Weather History for the Previous 24 Hours

Scroll right to see more
 ConditionsComfort  
Time TempWeatherWind HumidityBarometerVisibility
10:53 am
Tue, Jan 17
37 °FFog.3 mph100%29.79 "Hg1 mi
9:53 am37 °FLight rain. Fog.7 mph96%29.80 "Hg0 mi
8:53 am35 °FLight rain. Fog.5 mph100%29.81 "Hg0 mi
7:53 am36 °FLight rain. Fog.6 mph97%29.84 "Hg0 mi
7:26 am36 °FThunderstorms. Fog.5 mph97%29.83 "Hg0 mi
7:06 am36 °FFog.5 mph97%29.84 "Hg0 mi
5:53 am35 °FLight rain. Fog.6 mph96%29.89 "Hg1 mi
5:29 am35 °FLight rain. Fog.6 mph96%29.89 "Hg1 mi
4:53 am35 °FLight rain. Fog.5 mph96%29.93 "Hg1 mi
3:53 am34 °FRain. Fog.8 mph97%29.97 "Hg1 mi
2:53 am33 °FRain. Fog.7 mph96%30.03 "Hg2 mi
2:32 am33 °FRain. Fog.7 mph96%30.02 "Hg2 mi
1:53 am33 °FRain. Fog.8 mph92%30.05 "Hg1 mi
1:32 am33 °FRain. Fog.8 mph92%30.05 "Hg1 mi
12:53 am33 °FLight rain. Fog.9 mph92%30.09 "Hg2 mi
12:15 am33 °FLight freezing rain. Fog.8 mph92%30.09 "Hg2 mi
11:53 pm
Mon, Jan 16
33 °FLight freezing rain. Fog.7 mph92%30.12 "Hg3 mi
11:14 pm33 °FLight freezing rain. Fog.12 mph88%30.12 "Hg2 mi
10:53 pm33 °FLight rain. Fog.7 mph88%30.16 "Hg2 mi
10:24 pm33 °FRain. Fog.6 mph92%30.16 "Hg2 mi
9:53 pm33 °FFog.9 mph92%30.17 "Hg5 mi
8:55 pm33 °FLight rain. Fog.9 mph92%30.18 "Hg4 mi
7:53 pm33 °FLight rain. Fog.5 mph92%30.23 "Hg5 mi
6:53 pm34 °FLight rain. Fog.7 mph88%30.23 "Hg2 mi
5:53 pm35 °FOvercast.5 mph82%30.24 "Hg6 mi
4:53 pm35 °FLight rain. Mostly cloudy.5 mph82%30.26 "Hg5 mi
3:53 pm35 °FLight rain. More clouds than sun.5 mph78%30.26 "Hg4 mi
2:53 pm36 °FLight rain. Overcast.5 mph73%30.27 "Hg4 mi
1:53 pm35 °FLight rain. Overcast.3 mph72%30.29 "Hg4 mi
12:53 pm35 °FOvercast.No wind72%30.32 "Hg4 mi
Weather by CustomWeather, © 2017

See weather overviewHow to use our weather pages